Satellite: RAX-2 Catalog number: 37853 Epoch time: 14191 72933153 Element set: 855 Inclination: 101 7125 deg RA of node: 232 6025 deg Eccentricity: 0 0215430 Arg of perigee: 348 7039 deg Mean anomaly: 121 4789 deg Mean motion: 14 89727041 rev/day Decay rate: 6 779e-05 rev/day^2 Epoch rev: 14616 Checksum: 312

Satellite: AUBIESAT Catalog number: 37854 Epoch time: 14191 08128183 Element set: 836 Inclination: 101 7168 deg RA of node: 233 5850 deg Eccentricity: 0 0213378 Arg of perigee: 347 6713 deg Mean anomaly: 070 0896 deg Mean motion: 14 91061853 rev/day Decay rate: 8 514e-05 rev/day^2 Epoch rev: 14612 Checksum: 304

Satellite: HRBE Catalog number: 37855 Epoch time: 14191 14708706 Element set: 844 Inclination: 101 7169 deg RA of node: 233 0103 deg Eccentricity: 0 0215557 Arg of perigee: 348 8194 deg Mean anomaly: 064 3643 deg Mean motion: 14 90361502 rev/day Decay rate: 7 771e-05 rev/day^2 Epoch rev: 14610 Checksum: 291

Satellite: RS-39 Catalog number: 38051 Epoch time: 14191 79142238 Element set: 710 Inclination: 051 6257 deg RA of node: 103 7146 deg Eccentricity: 0 0002552 Arg of perigee: 251 3075 deg Mean anomaly: 146 9214 deg Mean motion: 15 63541112 rev/day Decay rate: 1 02237e-03 rev/day^2 Epoch rev: 13780 Checksum: 271

Satellite: E-STAR Catalog number: 38079 Epoch time: 14189 44656301 Element set: 903 Inclination: 069 4509 deg RA of node: 295 4553 deg Eccentricity: 0 0360641 Arg of perigee: 323 9785 deg Mean anomaly: 149 9819 deg Mean motion: 15 11748193 rev/day Decay rate: 8 7302e-04 rev/day^2 Epoch rev: 12667 Checksum: 345

Satellite: GOLIAT Catalog number: 38085 Epoch time: 14191 69046693 Element set: 189 Inclination: 069 4566 deg RA of node: 297 1582 deg Eccentricity: 0 0383400 Arg of perigee: 324 6261 deg Mean anomaly: 032 9993 deg Mean motion: 15 05999851 rev/day Decay rate: 7 5949e-04 rev/day^2 Epoch rev: 12681 Checksum: 359

Satellite: HORYU-2 Catalog number: 38340 Epoch time: 14191 32745883 Element set: 904 Inclination: 098 2623 deg RA of node: 148 9180 deg Eccentricity: 0 0013394 Arg of perigee: 100 4094 deg Mean anomaly: 259 8672 deg Mean motion: 14 72594577 rev/day Decay rate: 2 246e-05 rev/day^2 Epoch rev: 11520 Checksum: 310

Satellite: RS-40 Catalog number: 38735 Epoch time: 14191 63524425 Element set: 618 Inclination: 082 4766 deg RA of node: 272 9218 deg Eccentricity: 0 0016863 Arg of perigee: 199 7029 deg Mean anomaly: 160 3403 deg Mean motion: 12 42560645 rev/day Decay rate: 2 4e-07 rev/day^2 Epoch rev: 8849 Checksum: 315

Satellite: PROITERES Catalog number: 38756 Epoch time: 14191 79901427 Element set: 3 Inclination: 098 2289 deg RA of node: 280 4801 deg Eccentricity: 0 0011257 Arg of perigee: 311 0881 deg Mean anomaly: 048 9354 deg Mean motion: 14 75002563 rev/day Decay rate: 6 25e-06 rev/day^2 Epoch rev: 9865 Checksum: 302

Satellite: BEESAT-3 Catalog number: 39134 Epoch time: 14191 76791940 Element set: 637 Inclination: 064 8647 deg RA of node: 063 8976 deg Eccentricity: 0 0029664 Arg of perigee: 303 7021 deg Mean anomaly: 056 1290 deg Mean motion: 15 05515173 rev/day Decay rate: 7 207e-05 rev/day^2 Epoch rev: 6721 Checksum: 312

Satellite: BEESAT-2 Catalog number: 39136 Epoch time: 14191 90808902 Element set: 621 Inclination: 064 8666 deg RA of node: 064 0064 deg Eccentricity: 0 0029601 Arg of perigee: 303 5204 deg Mean anomaly: 056 3090 deg Mean motion: 15 04876182 rev/day Decay rate: 6 241e-05 rev/day^2 Epoch rev: 6722 Checksum: 280

Satellite: LO-75 Catalog number: 39382 Epoch time: 14191 39469969 Element set: 305 Inclination: 040 4965 deg RA of node: 314 5196 deg Eccentricity: 0 0019541 Arg of perigee: 044 2364 deg Mean anomaly: 316 0605 deg Mean motion: 15 47521758 rev/day Decay rate: 1 02480e-03 rev/day^2 Epoch rev: 3565 Checksum: 323

Satellite: ZACUBE-1 Catalog number: 39417 Epoch time: 14191 32287713 Element set: 345 Inclination: 097 7731 deg RA of node: 261 1481 deg Eccentricity: 0 0062349 Arg of perigee: 166 9576 deg Mean anomaly: 193 3283 deg Mean motion: 14 78167532 rev/day Decay rate: 2 660e-05 rev/day^2 Epoch rev: 3411 Checksum: 312

Satellite: TRITON-1 Catalog number: 39427 Epoch time: 14191 19781401 Element set: 199 Inclination: 097 7615 deg RA of node: 256 3803 deg Eccentricity: 0 0117884 Arg of perigee: 176 7908 deg Mean anomaly: 183 4169 deg Mean motion: 14 65438094 rev/day Decay rate: 1 704e-05 rev/day^2 Epoch rev: 3376 Checksum: 337

Satellite: DELFIN3XT Catalog number: 39428 Epoch time: 14191 76909283 Element set: 201 Inclination: 097 7599 deg RA of node: 256 0873 deg Eccentricity: 0 0128569 Arg of perigee: 176 9079 deg Mean anomaly: 183 2997 deg Mean motion: 14 63373162 rev/day Decay rate: 2 930e-05 rev/day^2 Epoch rev: 3378 Checksum: 357

Satellite: GOMX-1 Catalog number: 39430 Epoch time: 14191 72805251 Element set: 627 Inclination: 097 7532 deg RA of node: 253 8076 deg Eccentricity: 0 0156713 Arg of perigee: 183 2706 deg Mean anomaly: 176 7496 deg Mean motion: 14 56873759 rev/day Decay rate: 1 671e-05 rev/day^2 Epoch rev: 3364 Checksum: 330

Satellite: MO-76 Catalog number: 39436 Epoch time: 14191 73466491 Element set: 263 Inclination: 097 7763 deg RA of node: 264 9914 deg Eccentricity: 0 0026855 Arg of perigee: 167 5272 deg Mean anomaly: 192 6696 deg Mean motion: 14 90584985 rev/day Decay rate: 1 7255e-04 rev/day^2 Epoch rev: 3438 Checksum: 373

Satellite: LO-74 Catalog number: 39440 Epoch time: 14191 02321076 Element set: 197 Inclination: 097 7695 deg RA of node: 259 0198 deg Eccentricity: 0 0084047 Arg of perigee: 170 8533 deg Mean anomaly: 189 4289 deg Mean motion: 14 73105066 rev/day Decay rate: 1 869e-05 rev/day^2 Epoch rev: 3394 Checksum: 338

Satellite: PUCPSAT-1 Catalog number: 39442 Epoch time: 14191 26192325 Element set: 195 Inclination: 097 7778 deg RA of node: 263 9362 deg Eccentricity: 0 0034917 Arg of perigee: 167 5977 deg Mean anomaly: 192 6204 deg Mean motion: 14 86170854 rev/day Decay rate: 3 075e-05 rev/day^2 Epoch rev: 3305 Checksum: 329

Satellite: LO-78 Catalog number: 39569 Epoch time: 14191 77568358 Element set: 407 Inclination: 051 6374 deg RA of node: 324 6048 deg Eccentricity: 0 0009022 Arg of perigee: 315 7776 deg Mean anomaly: 188 2274 deg Mean motion: 15 94771005 rev/day Decay rate: 6 14778e-03 rev/day^2 Epoch rev: 2077 Checksum: 352

Satellite: SHINAISAT Catalog number: 39572 Epoch time: 14191 77062099 Element set: 180 Inclination: 065 0084 deg RA of node: 320 9755 deg Eccentricity: 0 0019024 Arg of perigee: 286 6680 deg Mean anomaly: 073 2399 deg Mean motion: 15 71436354 rev/day Decay rate: 6 7086e-04 rev/day^2 Epoch rev: 2081 Checksum: 314

Satellite: OPUSAT Catalog number: 39575 Epoch time: 14191 85290008 Element set: 245 Inclination: 064 9907 deg RA of node: 312 4622 deg Eccentricity: 0 0020131 Arg of perigee: 291 3259 deg Mean anomaly: 068 5773 deg Mean motion: 16 04091363 rev/day Decay rate: 6 97612e-03 rev/day^2 Epoch rev: 2098 Checksum: 306

Satellite: TEIKYOSAT Catalog number: 39576 Epoch time: 14191 17336727 Element set: 182 Inclination: 064 9987 deg RA of node: 321 3551 deg Eccentricity: 0 0018683 Arg of perigee: 296 7840 deg Mean anomaly: 063 1581 deg Mean motion: 15 75634673 rev/day Decay rate: 9 0862e-04 rev/day^2 Epoch rev: 2075 Checksum: 335

Satellite: CO-77 Catalog number: 39577 Epoch time: 14191 42027467 Element set: 197 Inclination: 065 0054 deg RA of node: 317 2530 deg Eccentricity: 0 0018573 Arg of perigee: 289 8379 deg Mean anomaly: 070 0781 deg Mean motion: 15 86426939 rev/day Decay rate: 1 99659e-03 rev/day^2 Epoch rev: 2085 Checksum: 358

Satellite: STARS-II Catalog number: 39579 Epoch time: 14116 06110564 Element set: 132 Inclination: 064 9886 deg RA of node: 219 0071 deg Eccentricity: 0 0013010 Arg of perigee: 293 8065 deg Mean anomaly: 069 6132 deg Mean motion: 16 44611049 rev/day Decay rate: 2 0186783e-01 rev/day^2 Epoch rev: 902 Checksum: 288

Satellite: SPROUT Catalog number: 39770 Epoch time: 14191 08041024 Element set: 60 Inclination: 097 8716 deg RA of node: 287 8827 deg Eccentricity: 0 0008750 Arg of perigee: 233 8687 deg Mean anomaly: 126 1701 deg Mean motion: 14 82636902 rev/day Decay rate: 1 086e-05 rev/day^2 Epoch rev: 693 Checksum: 304

Satellite: POPSAT-HIP1 Catalog number: 40028 Epoch time: 14191 79978117 Element set: 55 Inclination: 097 9852 deg RA of node: 086 4776 deg Eccentricity: 0 0013525 Arg of perigee: 214 1592 deg Mean anomaly: 145 8762 deg Mean motion: 14 85081993 rev/day Decay rate: 1 914e-05 rev/day^2 Epoch rev: 308 Checksum: 324

Satellite: EO-80 Catalog number: 40032 Epoch time: 14191 66824380 Element set: 54 Inclination: 097 9808 deg RA of node: 086 3285 deg Eccentricity: 0 0012016 Arg of perigee: 209 1240 deg Mean anomaly: 150 9354 deg Mean motion: 14 84851971 rev/day Decay rate: 1 940e-05 rev/day^2 Epoch rev: 307 Checksum: 288

Satellite: VELOX-1 Catalog number: 40057 Epoch time: 14191 81334084 Element set: 41 Inclination: 098 2519 deg RA of node: 259 1428 deg Eccentricity: 0 0010367 Arg of perigee: 245 1490 deg Mean anomaly: 114 8647 deg Mean motion: 14 73956287 rev/day Decay rate: 2 298e-05 rev/day^2 Epoch rev: 156 Checksum: 301

Satellite: OBJECT C Catalog number: 40071 Epoch time: 14191 82540802 Element set: 10 Inclination: 098 4040 deg RA of node: 243 5240 deg Eccentricity: 0 0007266 Arg of perigee: 248 4855 deg Mean anomaly: 111 5565 deg Mean motion: 14 79492373 rev/day Decay rate: -2 22e-06 rev/day^2 Epoch rev: 30 Checksum: 252

Satellite: OBJECT G Catalog number: 40075 Epoch time: 14191 82422499 Element set: 12 Inclination: 098 4033 deg RA of node: 243 5283 deg Eccentricity: 0 0004132 Arg of perigee: 270 1457 deg Mean anomaly: 089 9292 deg Mean motion: 14 80344779 rev/day Decay rate: -3 687e-05 rev/day^2 Epoch rev: 30 Checksum: 287

